Change the Weather History Date:

Tuesday, October 4, 2011

  Actual Average Record
Temperature  
Mean Temperature 43 °F -  
Max Temperature 56 °F 54 °F 68 °F (1997)
Min Temperature 29 °F 26 °F 17 °F (2013)
Degree Days  
Heating Degree Days 22 25  
Month to date heating degree days 76 97  
Since 1 July heating degree days 1141 1395  
Cooling Degree Days 0 0  
Month to date cooling degree days 0 0  
Year to date cooling degree days 0 0  
Moisture  
Dew Point 36 °F    
Average Humidity 69    
Maximum Humidity 100    
Minimum Humidity 38    
Precipitation  
Precipitation 0.31 in 0.03 in 0.31 in (2011)
Month to date precipitation 0.31 0.12  
Year to date precipitation 12.50 10.15  
Snow  
Snow 0.00 in - - ()
Month to date snowfall 0.0  
Snow Depth 0.00 in    
Sea Level Pressure  
Sea Level Pressure 30.02 in    
Wind  
Wind Speed 5 mph (SSE)    
Max Wind Speed 30 mph    
Max Gust Speed 39 mph    
Visibility 8 miles    
Events Rain    
T = Trace of Precipitation, MM = Missing Value Source: NWS Daily Summary

Daily Weather History Graph

Daily Weather History Graph

Search for Another Location

Airport or City:

Trip Planner

Search our weather history database for the weather conditions in past years. The results will help you decide how hot, cold, wet, or windy it might be!

Date:

Astronomy

Oct. 04, 2011 Rise Set
Actual Time 7:03 AM MDT 6:43 PM MDT
Civil Twilight 6:37 AM MDT 7:10 PM MDT
Nautical Twilight 6:06 AM MDT 7:41 PM MDT
Astronomical Twilight 5:34 AM MDT 8:12 PM MDT
Moon 2:44 PM MDT (10/4) No Moon Set
Length of Visible Light 12h 32m
Length of Day
11h 39m
First Quarter, 56% of the Moon is Illuminated
Oct 4
First Quarter
Oct 11
Full
Oct 19
Last Quarter
Oct 26
New
Nov 2
First Quarter

Hourly Weather History & Observations

Time (MDT) Temp. Windchill Dew Point Humidity Pressure Visibility Wind Dir Wind Speed Gust Speed Precip Events Conditions
12:53 AM 39.0 °F - 33.1 °F 79% 29.95 in 10.0 mi Calm Calm - N/A   Clear
1:53 AM 37.0 °F - 33.1 °F 86% 29.94 in 10.0 mi Calm Calm - N/A   Clear
2:53 AM 33.1 °F - 30.9 °F 92% 29.98 in 10.0 mi Calm Calm - N/A   Clear
3:53 AM 33.1 °F 30.0 °F 30.9 °F 92% 29.98 in 10.0 mi East 3.5 mph - N/A   Clear
4:53 AM 30.9 °F 26.2 °F 28.9 °F 92% 29.98 in 10.0 mi East 4.6 mph - N/A   Partly Cloudy
5:53 AM 30.9 °F 25.2 °F 28.9 °F 92% 30.01 in 10.0 mi East 5.8 mph - N/A   Clear
6:53 AM 34.0 °F 28.8 °F 30.9 °F 89% 30.00 in 10.0 mi SSE 5.8 mph - N/A   Scattered Clouds
8:53 AM 43.0 °F 41.3 °F 35.1 °F 74% 29.99 in 10.0 mi NW 3.5 mph - N/A   Overcast
9:53 AM 46.0 °F 43.1 °F 35.1 °F 66% 29.95 in 10.0 mi WNW 5.8 mph - N/A   Overcast
10:53 AM 46.9 °F - 34.0 °F 61% 29.96 in 10.0 mi SSW 8.1 mph - N/A   Overcast
11:53 AM 52.0 °F - 33.1 °F 49% 29.90 in 10.0 mi South 5.8 mph - N/A   Mostly Cloudy
12:53 PM 55.0 °F - 30.0 °F 38% 29.86 in 10.0 mi SSW 8.1 mph - N/A   Mostly Cloudy
1:53 PM 54.0 °F - 32.0 °F 43% 29.82 in 10.0 mi SSW 12.7 mph 21.9 mph N/A   Mostly Cloudy
2:53 PM 52.0 °F - 30.9 °F 45% 29.84 in 10.0 mi South 9.2 mph 21.9 mph 0.00 in Rain Light Rain
3:53 PM 42.1 °F 34.5 °F 39.9 °F 92% 29.96 in 4.0 mi WSW 15.0 mph 28.8 mph 0.01 in Rain Rain
4:32 PM 41.0 °F 37.1 °F 37.4 °F 87% 30.24 in 2.5 mi South 5.8 mph - 0.14 in Rain Rain
4:41 PM 41.0 °F 39.0 °F 39.2 °F 93% 30.24 in 6.0 mi SSE 3.5 mph - 0.15 in Rain Light Rain
4:53 PM 42.1 °F 39.2 °F 39.9 °F 92% 29.96 in 7.0 mi East 4.6 mph - 0.17 in Rain Light Rain
5:05 PM 42.8 °F 39.3 °F 39.2 °F 87% 30.22 in 10.0 mi East 5.8 mph - 0.00 in   Mostly Cloudy
5:53 PM 44.1 °F - 37.0 °F 76% 29.93 in 10.0 mi Calm Calm - 0.00 in   Scattered Clouds
6:53 PM 41.0 °F 39.0 °F 39.9 °F 96% 29.93 in 4.0 mi North 3.5 mph - 0.01 in Rain Rain
7:17 PM 41.0 °F 38.0 °F 39.2 °F 93% 30.21 in 10.0 mi SW 4.6 mph - 0.01 in Rain Light Rain
7:31 PM 41.0 °F - 39.2 °F 93% 30.21 in 4.0 mi Calm Calm - 0.04 in Rain Rain
7:41 PM 39.2 °F - 39.2 °F 100% 30.21 in 2.5 mi Calm Calm - 0.06 in Rain Rain
7:46 PM 39.2 °F - 39.2 °F 100% 30.21 in 3.0 mi Calm Calm - 0.08 in Rain Rain
7:53 PM 39.9 °F - 39.0 °F 97% 29.94 in 4.0 mi Calm Calm - 0.10 in Rain Light Rain
8:06 PM 39.2 °F - 39.2 °F 100% 30.21 in 10.0 mi Calm Calm - 0.01 in Rain Light Rain
8:23 PM 39.2 °F - 37.4 °F 93% 30.21 in 10.0 mi Calm Calm - 0.01 in Rain Light Rain
8:53 PM 39.9 °F - 37.9 °F 93% 29.86 in 10.0 mi Calm Calm - 0.01 in Rain Light Rain
9:41 PM 39.2 °F 35.9 °F 37.4 °F 93% 30.20 in 10.0 mi NNE 4.6 mph - 0.01 in   Overcast
9:53 PM 39.0 °F 34.8 °F 37.9 °F 96% 29.84 in 10.0 mi NNE 5.8 mph - 0.01 in   Overcast
10:53 PM 37.9 °F 35.5 °F 37.0 °F 97% 29.83 in 10.0 mi SE 3.5 mph - N/A   Overcast
11:26 PM 39.2 °F - 37.4 °F 93% 30.17 in 10.0 mi Calm Calm - N/A   Overcast
11:53 PM 37.9 °F 34.4 °F 37.9 °F 100% 29.78 in 2.5 mi WNW 4.6 mph - N/A   Overcast